CAPE
842 931 1130 740 438 171 152 88 93 314 371 352 174 478 486 7 60 0 17 481 578 366 590 1280 1177 857 827 882 817 686 542 579 655 637 560 439 461 363 457 441 693 1007 977 1166 1195 1044 1406 1542 1315
707 1137 1270 641 164 25 70 75 151 466 593 123 31 333 236 100 104 24 714 622 472 537 828 1161 1147 862 967 858 861 733 494 457 498 555 548 522 490 517 522 508 662 890 945 1106 1225 1254 1082 913 1271
845 1405 958 481 180 17 60 188 36 409 672 372 104 475 290 313 322 387 635 734 632 680 850 1203 1370 1145 994 823 917 809 774 803 598 616 632 549 522 509 577 714 685 706 696 847 904 1086 1032 1112 1193
1575 1099 930 434 164 132 193 134 52 385 522 331 387 621 529 485 453 618 629 732 850 704 831 1445 1365 956 863 811 701 715 1019 944 849 752 632 586 539 398 351 484 766 862 808 775 725 808 890 1079 1104
202 170 235 247 244 248 264 312 189 481 501 275 495 427 527 607 424 557 905 1050 1062 947 1046 1414 1507 1423 1190 997 1032 1102 1097 1002 888 728 614 478 388 395 396 437 500 674 667 912 864 775 770 822 819
0 46 320 116 255 131 150 129 67 472 300 230 477 315 302 606 509 566 1078 1109 990 1035 1593 1755 1681 1653 1594 1503 1353 1192 1190 1115 904 601 522 477 551 677 778 655 669 868 709 922 984 1129 620 756 711
0 244 196 25 186 260 25 39 162 570 341 262 312 187 179 533 551 714 848 931 902 1039 1031 1360 1676 1643 1496 1401 1347 1291 1122 949 867 803 934 1047 1173 1140 978 1061 986 969 879 1047 917 1095 1144 996 955
0 198 22 49 507 168 156 65 97 399 500 272 329 159 218 225 496 677 739 628 731 702 842 1062 986 1440 1400 1542 1406 1013 1138 1061 1032 924 969 1020 1073 1048 1085 885 708 983 1131 832 1041 925 1041 1196 1375
36 274 251 212 279 232 319 93 12 234 335 284 321 212 189 153 530 623 560 635 635 759 720 711 880 1272 1038 1063 1588 1091 1048 1140 1106 1259 1282 1181 595 742 984 621 618 961 1196 1079 1085 1081 1100 1055 1167
9 83 0 68 1 288 153 36 7 51 246 290 199 235 98 150 429 596 467 680 643 666 710 705 580 798 1215 1146 1264 876 832 1067 1119 879 976 555 0 59 570 900 1088 1062 943 1212 834 824 1033 1128 608
142 102 38 45 152 164 60 100 101 124 38 138 148 121 93 117 200 202 272 550 414 465 618 567 556 778 1271 1309 769 571 439 764 945 1075 977 799 358 344 766 841 333 397 611 465 747 485 776 757 523
128 254 88 220 384 229 178 177 356 130 96 134 96 72 84 48 79 70 81 109 191 394 460 536 738 900 1163 1094 688 971 808 890 1219 1213 1261 998 744 574 681 787 309 63 39 198 579 481 298 568 381
32 53 124 51 466 176 21 49 294 489 137 103 58 33 47 9 26 33 51 72 213 409 284 519 673 683 1306 877 676 1030 963 895 1052 843 620 480 394 514 490 455 766 499 518 439 322 263 393 111 35
10 13 28 5 92 497 110 71 242 346 99 4 0 0 2 0 5 7 50 26 92 50 45 154 520 380 604 379 151 378 365 248 631 356 111 364 565 654 550 626 458 500 452 325 289 254 367 178 38
3 6 16 18 42 236 70 20 0 148 145 0 0 0 0 0 0 0 22 18 46 20 84 102 320 251 74 467 12 0 0 0 283 635 323 83 5 385 745 459 603 592 461 335 165 7 35 10 188
0 14 27 156 139 157 0 0 4 0 77 0 0 0 0 0 0 0 2 1 0 43 100 134 248 346 71 786 449 1 84 40 394 757 440 575 720 1375 1381 1097 860 902 447 390 247 46 5 63 214
2 24 42 28 231 76 26 1 5 18 57 0 0 0 0 0 0 0 0 0 0 18 55 90 197 177 521 964 964 839 1077 822 630 887 1116 1197 1379 1496 1437 1355 1346 1048 602 254 259 165 6 21 421
3 4 1 99 452 376 210 8 8 187 316 34 0 0 0 3 0 0 0 0 0 0 0 0 97 147 326 1117 872 891 1042 893 963 931 817 1291 1745 1746 1558 1498 1536 1525 730 249 208 162 25 30 484
0 1 40 123 410 314 240 64 0 193 391 384 0 12 20 46 0 0 0 0 0 0 25 16 392 83 316 501 565 776 798 873 937 935 493 473 1330 1875 1603 1408 1591 1120 775 506 193 136 8 337 422
6 0 1 15 105 261 160 75 350 359 489 465 9 12 0 24 7 0 0 0 0 6 47 90 453 236 564 396 471 664 795 1062 804 477 585 526 59 1187 1888 1688 1679 741 916 651 391 565 667 413 779
0 0 2 0 0 14 371 198 261 540 780 473 183 20 1 0 11 0 3 0 44 70 137 363 704 723 816 903 959 982 1212 1475 659 123 0 0 0 594 2044 1847 1047 841 1230 749 502 673 825 497 660
0 0 0 0 0 0 10 91 213 127 584 722 493 108 18 0 20 10 94 0 76 137 263 425 745 576 517 691 817 829 1074 1162 662 221 0 0 63 750 1872 1903 1473 1133 1325 921 904 848 579 937 694
0 0 0 0 0 2 0 9 15 76 675 840 647 480 114 3 18 31 59 159 332 384 520 558 826 653 566 503 1109 1142 1071 974 1345 943 517 395 315 703 1483 1406 1446 1125 1269 972 1082 1247 1236 1245 939
0 0 0 0 0 0 0 0 130 293 492 789 771 615 370 195 131 111 27 178 407 773 791 749 999 817 803 724 772 1118 1720 1070 1478 1469 936 712 1226 2048 1626 1575 1055 967 1090 1167 1018 793 760 233 200
0 0 0 0 0 0 1 0 0 44 210 610 809 712 703 250 263 252 161 84 541 785 972 1055 1029 1150 1181 982 984 808 1422 2010 1297 1802 1809 1997 1768 1931 1727 1231 1049 907 1097 1029 659 427 134 174 4
0 0 0 0 0 0 0 0 0 80 197 689 840 758 735 635 361 325 272 198 122 744 1139 1212 1151 1055 1241 1552 1241 1381 1066 1485 2488 1811 2195 1931 122 103 1867 1644 1195 1071 754 794 465 385 363 139 11
0 0 0 0 0 0 5 26 185 132 185 438 759 638 827 771 557 422 379 296 217 551 656 1298 1201 1189 1384 1263 1871 1766 1747 1437 1546 2127 1962 1929 1179 1047 1999 1775 1084 818 766 377 557 182 155 72 0
0 0 0 0 0 2 163 263 282 161 270 341 609 641 739 771 668 575 408 390 327 413 423 906 1316 1341 1493 1520 1496 1808 1836 1897 1523 1801 1795 2051 1839 1851 1868 1288 906 670 520 474 344 143 0 0 0
0 0 0 0 0 0 30 223 59 2 222 339 428 606 619 810 727 847 557 568 463 438 540 629 1281 1571 1595 1682 1641 1756 1939 2139 1913 1758 2301 2100 2073 2064 1747 1140 714 503 418 397 435 53 0 0 0
0 0 0 0 0 0 0 12 31 58 664 714 653 632 623 717 749 956 920 741 498 323 505 801 1213 1434 1555 1501 1699 1893 1893 2102 2251 1851 2262 2922 2527 2176 1605 982 570 499 419 316 138 24 0 0 0
CIN
-94 -55 -28 -11 -37 -16 -54 -36 -37 -16 -37 -51 -49 -8 -15 -8 -21 0 -279 -53 -82 -87 -18 0 -1 -7 0 -5 -2 -6 -19 -13 -5 -11 -17 -15 -13 -18 -12 -14 -17 -8 -12 0 0 -6 -1 -6 -9
-149 -47 -9 -50 -32 -35 -48 -52 -10 -36 -46 -97 -46 -59 -75 -128 -166 -241 -45 -55 -103 -81 -20 -1 -9 -31 -7 -12 -6 -6 -17 -15 -4 -10 -11 -7 -17 -8 -5 -8 -10 -4 -6 0 0 -2 -7 -20 -10
-175 -14 -6 -84 -49 -36 -39 -14 -23 -9 -26 -58 -124 -23 -61 -75 -84 -135 -72 -75 -93 -73 -35 -5 0 -3 -10 -22 -4 -3 -2 -1 -4 -3 -1 -4 -11 -9 -1 0 -1 -7 -13 -2 -1 -4 -10 -11 -16
-35 -56 -47 -19 -7 -16 -5 -18 -28 -17 -43 -60 -77 -29 -30 -47 -45 -42 -41 -73 -78 -88 -70 -4 -1 -18 -20 -16 -9 -5 0 0 0 0 0 -3 -6 -18 -11 -6 0 0 -11 -6 -13 -12 -18 -11 -14
-242 -212 -87 -17 -15 -13 -14 -6 -11 -17 -27 -30 -39 -32 -36 -27 -34 -20 -31 -82 -92 -87 -60 -8 0 0 -3 -5 0 0 0 0 0 -1 -2 -10 -15 -14 -14 -7 -5 -2 -7 0 -5 -10 -19 -24 -24
0 -243 -63 -29 -34 -25 -22 -22 -55 -28 -43 -42 -37 -43 -48 -21 -35 -44 -73 -115 -123 -115 -18 0 0 0 0 0 0 0 0 0 -1 -16 -22 -23 -19 -19 -12 -16 -10 -1 0 0 0 0 -24 -27 -32
0 -180 -61 -44 -30 -15 -37 -76 -26 -14 -30 -45 -74 -105 -69 -30 -30 -61 -80 -130 -142 -124 -100 -25 -1 -1 0 0 0 -1 0 -6 -8 -7 -1 0 0 0 -6 -5 -10 -4 -1 0 -2 0 -2 -22 -31
-13 -181 -104 -72 -19 -11 -25 -16 -33 -13 -37 -62 -64 -99 -78 -77 -55 -52 -95 -127 -142 -147 -148 -90 -59 -13 -8 -1 -3 -15 -6 -11 -9 -15 -11 -10 -6 -7 -2 -13 -31 -13 -1 -4 -1 -8 -8 -10 -17
-243 -84 -45 -45 -41 -22 -27 -32 -23 -27 -19 -40 -50 -107 -88 -103 -39 -80 -94 -109 -126 -136 -139 -128 -101 -53 -50 -37 -4 -25 -28 -24 -24 -17 -21 -17 -54 -53 -31 -38 -41 -24 -9 -2 -3 -12 -15 -13 -12
-242 -114 0 -104 -71 -19 -26 -25 -33 -54 -13 -48 -99 -91 -96 -91 -52 -37 -89 -81 -89 -119 -139 -136 -116 -96 -58 -47 -45 -61 -67 -50 -44 -56 -51 -51 0 -121 -63 -32 -12 -19 -20 -5 -17 -23 -12 -14 -24
-196 -81 -167 -64 -59 -27 -29 -10 -22 -70 -59 -80 -105 -137 -110 -67 -26 -47 -72 -36 -64 -118 -115 -123 -103 -98 -61 -56 -88 -101 -119 -85 -72 -54 -43 -57 -60 -73 -56 -35 -37 -48 -32 -37 -28 -24 -23 -22 -33
-137 -76 -65 -49 -66 -54 -71 -66 -46 -42 -60 -85 -118 -118 -121 -101 -85 -101 -75 -95 -85 -56 -61 -70 -63 -49 -52 -56 -88 -79 -81 -78 -48 -40 -33 -22 -43 -42 -46 -40 -49 -86 -94 -50 -24 -31 -37 -37 -29
-73 -71 -35 -97 -81 -188 -114 -36 -72 -25 -54 -86 -128 -148 -124 -134 -105 -118 -110 -109 -74 -23 -60 -53 -49 -60 -38 -48 -63 -49 -48 -64 -39 -39 -36 -21 -26 -27 -32 -36 -33 -35 -35 -30 -28 -41 -29 -48 -53
-27 -44 -110 -126 -100 -160 -69 -101 -60 -25 -42 -57 0 -23 -54 0 -130 -82 -90 -110 -78 -133 -159 -96 -61 -61 -46 -42 -98 -57 -47 -60 -26 -38 -52 -27 -19 -24 -23 -30 -40 -35 -23 -35 -26 -37 -32 -43 -75
-154 -111 -142 -150 -143 -130 -156 -92 0 -63 -54 0 0 0 0 0 -1 0 -118 -140 -125 -190 -162 -133 -88 -96 -147 -62 -176 0 0 -2 -17 -26 -31 -30 -4 -25 -27 -36 -26 -23 -22 -37 -78 -52 -56 -68 -41
-18 -65 -39 -88 -176 -205 0 -13 -146 0 -105 0 0 0 0 0 0 0 -9 -16 0 -217 -172 -157 -99 -104 -180 -67 -83 -30 -61 -8 -17 -17 -26 -36 -32 -19 -23 -21 -23 -22 -18 -25 -32 -36 -49 -50 -34
-71 -43 -34 -56 -124 -157 -152 -14 -173 -154 -64 0 0 0 0 0 -4 0 0 0 0 -247 -213 -171 -164 -146 -104 -67 -47 -43 -27 -22 -14 -20 -22 -29 -23 -16 -21 -22 -19 -19 -26 -43 -25 -76 -29 -83 -21
-63 -55 -5 -6 -122 -106 -175 -34 -218 -153 -104 -104 0 0 0 -19 -5 0 0 0 0 0 0 0 -188 -150 -115 -55 -41 -29 -27 -18 -15 -23 -28 -27 -16 -14 -18 -18 -12 -6 -22 -51 -37 -33 -129 -125 -24
0 -5 -28 -6 -100 -82 -145 -134 -1 -183 -185 -112 0 -166 -134 -96 0 0 0 0 0 0 -181 -194 -101 -178 -132 -99 -70 -43 -33 -8 -17 -58 -97 -107 -23 -12 -20 -20 -11 -33 -38 -58 -86 -92 -109 -48 -48
-44 0 -9 -16 -18 -50 -162 -130 -94 -142 -110 -108 -43 -164 0 -141 -172 0 0 0 0 -219 -166 -134 -100 -135 -105 -107 -83 -55 -33 -22 -80 -119 -97 -116 -220 -62 -12 -19 -14 -61 -39 -58 -73 -40 -23 -54 -26
0 0 -16 0 0 -7 -48 -80 -103 -102 -44 -63 -115 -173 -37 0 -191 0 -100 0 -200 -174 -143 -97 -104 -114 -92 -66 -51 -45 -25 -20 -95 -178 0 0 0 -107 -16 -23 -33 -37 -21 -27 -51 -28 -17 -51 -34
0 0 0 0 0 0 -17 -12 -4 -81 -46 -41 -53 -153 -184 0 -192 -228 -166 -11 -187 -157 -134 -112 -114 -92 -106 -92 -84 -78 -36 -11 -101 -128 0 0 -219 -110 -28 -23 -17 -14 -9 -15 -19 -22 -35 -16 -26
0 0 0 0 0 -23 -11 -66 -101 -64 -34 -43 -54 -96 -156 -181 -193 -216 -174 -183 -158 -149 -124 -115 -118 -107 -102 -126 -71 -63 -42 -27 -58 -94 -138 -177 -194 -137 -45 -42 -22 -11 -10 -14 -15 -8 -6 -5 -14
0 0 0 0 0 0 0 0 -37 -33 -45 -44 -40 -50 -102 -160 -160 -173 -161 -155 -148 -117 -115 -120 -127 -107 -97 -101 -104 -85 -43 -38 -23 -37 -97 -170 -88 -44 -51 -40 -48 -52 -23 -11 -19 -37 -45 -159 -161
0 0 0 0 0 -15 -106 0 0 -34 -39 -45 -52 -38 -49 -157 -162 -158 -148 -109 -117 -125 -117 -112 -127 -112 -101 -96 -96 -116 -79 -38 -37 -17 -20 -33 -25 -28 -52 -74 -88 -97 -55 -64 -131 -167 -262 -233 -135
0 0 0 0 -21 -6 -8 0 0 -41 -54 -60 -68 -46 -33 -86 -170 -144 -146 -140 -122 -148 -129 -129 -137 -115 -126 -88 -98 -88 -114 -78 -34 -33 -20 -39 -82 -188 -25 -64 -84 -86 -134 -97 -158 -182 -191 -284 -120
0 0 0 0 0 0 -35 -29 -38 -67 -70 -60 -75 -62 -58 -45 -122 -133 -124 -144 -128 -137 -152 -145 -156 -139 -121 -129 -99 -99 -90 -106 -85 -48 -41 -46 -92 -162 -42 -71 -96 -105 -106 -169 -132 -248 -267 -316 0
0 0 0 0 0 -4 -18 -16 -13 -24 -37 -55 -72 -88 -78 -54 -68 -112 -110 -115 -144 -148 -136 -163 -159 -160 -141 -130 -129 -111 -104 -94 -105 -70 -55 -37 -57 -88 -72 -100 -129 -141 -142 -120 -131 -197 0 0 0
0 0 0 0 0 0 -34 -39 -141 -40 -7 -28 -36 -63 -77 -77 -42 -61 -103 -102 -146 -128 -148 -169 -156 -152 -148 -146 -135 -138 -131 -107 -117 -108 -73 -54 -47 -57 -82 -142 -174 -177 -143 -124 -104 -247 0 0 0
0 0 0 0 0 0 0 -84 -154 -146 -15 -15 -39 -55 -68 -79 -73 -51 -40 -97 -128 -135 -139 -155 -157 -160 -161 -162 -150 -144 -141 -140 -122 -129 -90 -45 -43 -75 -116 -164 -161 -140 -94 -107 -149 -213 0 0 0
Wind_Speed
22 21 19 18 20 15 12 3 30 30 27 28 27 22 17 16 16 13 31 28 27 34 33 22 12 11 13 12 10 10 9 10 4 8 12 1 9 15 26 26 26 26 26 26 27 27 26 25 24
21 20 17 14 25 19 19 29 26 28 28 27 23 27 23 20 21 26 27 27 25 27 22 5 13 13 11 11 10 9 12 12 0 10 14 8 5 18 26 25 25 26 25 25 26 26 26 25 24
20 16 11 15 21 29 25 22 26 27 27 25 27 26 25 26 26 28 30 27 26 24 16 11 9 10 8 9 11 11 12 18 18 24 22 18 26 26 26 26 24 25 25 25 24 24 23 23 22
14 12 13 15 25 25 25 27 28 29 29 29 31 27 28 29 30 29 31 31 26 22 18 17 16 16 16 16 15 15 18 20 24 26 25 25 25 25 24 24 23 24 24 23 23 23 22 22 21
12 16 16 21 25 29 27 25 28 32 28 28 29 30 32 31 31 33 31 27 23 20 18 19 19 18 19 20 19 16 18 21 24 25 24 24 23 22 22 21 21 21 21 21 21 21 20 20 20
14 17 15 25 22 19 24 25 25 28 30 30 31 31 31 33 33 34 32 27 26 25 22 23 23 22 24 26 26 24 24 22 24 24 23 22 21 21 21 21 20 20 20 20 20 19 19 18 18
17 18 17 20 21 17 28 21 23 27 29 27 30 31 30 32 33 33 31 29 27 26 24 26 22 26 25 24 26 26 24 25 24 23 22 21 20 20 19 19 19 18 18 18 18 18 18 18 17
19 15 18 22 23 22 25 24 28 27 28 28 30 27 29 31 33 31 30 30 31 32 28 30 30 29 28 28 27 26 25 24 23 22 21 20 19 19 19 18 18 17 16 16 15 16 16 16 15
16 15 7 15 21 22 26 26 25 27 29 28 22 28 31 34 31 31 31 31 32 31 33 31 30 29 28 27 26 25 25 24 23 22 20 19 18 18 18 17 16 15 15 15 15 14 15 14 14
19 25 16 14 10 20 25 25 26 27 26 26 28 30 31 33 32 32 32 31 31 31 32 31 30 30 28 27 25 24 24 23 22 21 20 20 19 17 17 16 14 14 14 14 14 13 13 13 13
16 19 24 16 27 22 8 21 24 20 20 24 27 29 31 33 30 31 30 31 29 31 31 29 29 29 28 26 25 24 23 22 21 20 18 17 17 16 16 15 15 14 14 13 12 12 12 13 12
21 14 19 27 24 24 9 17 9 20 24 25 25 27 31 32 30 27 30 27 26 28 29 28 28 27 26 25 25 23 22 21 20 19 18 16 16 15 14 13 13 12 12 11 10 10 10 10 11
8 3 13 7 25 23 20 11 13 14 24 25 25 27 29 30 30 26 28 27 25 28 28 25 27 24 25 23 23 21 20 20 20 19 18 18 17 15 14 13 12 11 11 9 10 8 9 9 8
7 27 13 7 22 22 21 17 15 19 23 24 26 28 28 29 29 27 26 26 25 24 22 22 19 19 22 22 20 19 20 18 19 18 18 17 14 14 13 12 11 9 9 9 12 9 10 9 11
18 11 11 10 11 22 25 17 23 18 16 22 26 27 28 29 28 26 27 26 24 21 21 22 19 17 21 18 20 19 21 19 19 17 17 15 14 12 12 11 9 6 6 13 23 9 12 16 11
7 19 13 12 18 20 23 20 21 20 21 22 26 26 26 28 28 26 25 23 23 19 20 21 20 19 22 21 20 22 22 19 16 15 15 14 14 13 12 9 7 9 13 16 7 9 11 10 13
11 16 11 7 18 18 17 4 15 18 22 24 25 25 26 28 27 26 25 23 22 21 21 21 20 22 22 22 22 23 20 18 17 16 15 15 14 13 12 10 7 4 13 8 13 14 12 12 14
9 8 7 11 16 19 26 19 16 21 24 28 26 25 25 28 27 25 24 24 21 21 21 21 20 22 22 22 22 21 19 19 17 16 14 14 14 13 12 11 9 9 15 18 20 20 19 16 15
11 11 11 19 17 19 19 19 14 21 23 29 27 24 25 25 26 25 23 22 23 22 21 20 18 22 21 20 20 21 20 18 17 13 14 15 15 13 13 12 15 19 18 21 21 21 20 17 16
10 11 11 12 19 17 15 15 17 18 22 27 26 24 24 25 24 25 25 22 24 24 22 21 19 22 19 17 18 21 20 16 12 14 14 7 16 14 13 14 17 18 20 21 22 20 18 16 16
14 12 8 10 12 10 14 13 13 15 19 23 23 23 23 24 23 25 27 26 24 23 23 20 19 19 19 18 20 21 16 11 10 12 18 16 16 14 13 17 18 20 18 19 19 18 15 15 15
20 18 13 14 20 18 13 11 12 17 21 18 19 21 22 23 23 26 26 26 25 24 23 22 20 19 18 18 20 20 15 13 13 12 16 16 15 14 14 16 17 18 17 18 18 17 16 17 17
23 22 20 17 16 22 22 19 18 19 20 17 17 22 23 24 24 23 23 23 24 23 23 22 19 19 18 18 19 20 16 14 12 13 17 17 16 14 15 17 17 18 19 18 18 18 19 19 19
25 25 24 22 24 22 21 17 17 19 20 18 19 23 27 24 23 22 23 20 24 22 21 20 19 19 18 18 20 20 19 16 11 15 16 16 17 16 16 16 17 17 18 18 18 19 19 19 20
26 25 23 21 23 12 13 12 20 16 15 17 21 22 22 26 23 21 22 21 18 24 22 22 21 19 20 20 20 22 21 17 16 13 14 14 15 14 15 16 16 17 18 17 18 19 19 19 19
28 25 26 25 22 2 1 12 13 16 18 19 22 20 19 22 23 22 24 22 20 24 22 22 21 21 22 20 21 21 20 19 14 13 13 13 15 14 14 14 16 16 16 17 17 17 18 18 19
26 28 27 26 29 22 14 17 17 14 15 16 19 17 18 19 23 24 24 23 23 20 23 21 22 20 21 21 18 18 18 19 18 14 12 11 12 13 15 14 14 13 14 14 15 16 17 17 18
21 26 26 23 21 17 12 14 10 10 13 13 15 16 17 19 21 26 24 20 21 21 21 19 20 20 19 19 19 18 18 18 18 16 15 14 12 12 13 13 12 12 12 13 14 14 15 16 17
25 27 27 28 25 25 18 13 12 24 11 12 12 15 17 17 15 20 24 22 21 22 21 20 18 18 18 17 16 16 16 16 17 17 15 13 10 10 12 9 9 10 10 10 11 11 12 14 15
18 23 21 24 28 28 24 20 3 10 14 15 15 13 14 15 14 17 18 20 22 23 20 21 21 20 19 18 18 18 17 16 16 17 17 13 8 8 7 5 6 8 9 10 10 11 12 13 14
Wind_Direction
130 137 129 156 125 143 145 110 83 81 52 69 49 63 63 93 54 52 112 106 102 125 151 178 87 87 82 80 74 66 58 52 38 38 44 186 32 42 72 77 74 76 73 72 81 78 74 74 72
141 136 128 165 108 104 124 95 98 71 84 66 50 51 39 44 67 92 98 103 100 105 132 175 89 87 83 78 72 62 59 54 49 39 47 191 14 49 84 75 75 80 83 86 92 80 81 82 77
133 168 166 152 127 90 108 123 84 70 81 58 76 64 66 74 84 97 104 101 101 101 93 91 92 88 84 77 70 61 58 70 68 114 159 165 125 96 109 89 77 85 83 97 100 89 83 86 83
156 179 181 152 121 116 110 93 96 80 73 69 80 59 78 84 91 101 106 105 98 95 95 91 90 88 85 82 76 71 78 83 95 129 147 136 131 118 119 118 127 102 96 104 107 100 93 98 88
215 142 142 117 106 82 73 115 88 76 71 79 71 76 90 94 95 102 101 97 92 88 92 92 92 88 88 92 88 76 82 91 108 124 139 135 135 131 132 134 129 123 120 113 112 106 104 104 99
167 129 154 100 113 132 103 86 103 71 85 80 76 82 92 106 107 109 106 96 96 96 94 96 96 95 100 108 114 108 110 105 130 131 136 137 133 128 125 124 122 120 125 121 116 104 105 111 115
133 133 143 136 126 136 99 115 110 86 88 86 91 90 101 113 114 107 103 99 97 97 96 103 93 106 103 104 117 120 114 130 134 132 132 131 132 130 130 123 113 112 113 114 110 104 107 112 113
119 125 135 135 122 116 107 104 77 85 91 96 100 99 111 120 120 112 107 103 105 112 108 119 121 127 124 128 129 128 134 139 138 138 136 133 138 140 129 119 110 107 111 119 115 102 106 116 123
130 112 193 162 132 124 110 82 83 93 99 103 103 108 115 129 114 112 110 109 116 120 124 121 127 128 128 127 129 127 136 142 146 146 142 132 130 131 133 118 107 102 110 118 114 109 110 108 128
98 70 141 159 261 139 105 92 94 104 85 88 96 106 117 136 120 121 124 121 126 128 130 126 128 132 127 131 132 134 140 146 146 143 142 138 127 117 119 123 107 97 104 115 123 114 108 102 113
112 93 82 134 87 100 176 104 66 57 87 100 106 114 127 140 126 123 123 130 134 132 131 132 130 131 130 131 137 139 141 143 148 146 135 134 128 115 112 112 79 88 104 105 125 109 100 119 97
15 171 102 83 29 57 157 47 269 99 108 104 106 115 131 141 127 122 137 131 114 121 131 131 129 129 131 133 137 140 140 144 146 146 141 134 133 133 124 108 89 94 100 123 122 107 99 110 137
346 264 305 259 41 46 31 297 246 168 98 104 108 120 129 139 139 129 134 130 118 121 124 112 127 125 135 137 144 145 146 144 143 140 141 147 111 113 122 99 86 86 67 60 53 71 82 86 114
260 356 163 209 67 63 48 42 47 56 99 104 114 129 133 141 143 138 130 128 120 122 116 116 101 102 118 141 134 116 136 123 136 131 130 125 106 104 82 84 97 89 65 32 16 41 23 40 37
90 105 202 225 149 71 73 90 144 146 152 106 125 132 140 144 147 138 137 134 127 120 115 120 111 107 127 113 136 130 157 166 125 133 134 109 105 105 94 97 98 110 96 7 294 28 357 336 11
175 34 142 149 137 103 77 122 173 173 162 117 130 137 140 149 146 137 134 129 129 114 117 120 123 121 135 136 144 147 155 160 131 98 103 104 105 93 101 125 110 76 44 355 98 121 12 64 354
77 80 105 86 148 80 64 170 256 213 181 135 137 138 142 149 142 137 134 133 130 123 122 125 124 127 132 138 140 152 161 151 124 104 97 113 111 115 111 121 132 132 60 119 137 136 100 115 139
220 129 108 113 99 69 41 46 227 166 184 173 143 143 148 156 140 137 135 135 126 126 128 126 127 135 135 131 142 151 158 132 114 93 155 125 130 131 123 121 127 118 91 98 125 134 137 143 141
216 199 169 63 100 57 74 90 127 155 169 187 154 145 151 149 141 140 137 131 132 130 126 129 119 137 132 130 131 150 156 129 122 38 334 280 243 88 117 135 106 85 98 107 122 129 133 138 140
183 192 212 167 42 45 81 91 108 141 162 171 156 151 146 151 139 142 143 130 136 136 136 133 126 134 129 123 127 145 141 127 46 32 61 33 242 228 126 110 89 95 100 104 118 126 127 132 123
217 193 179 231 222 137 113 92 139 147 154 146 160 154 147 149 141 145 148 141 139 139 139 132 130 132 132 128 136 149 133 107 57 40 57 86 233 211 169 81 73 79 108 107 118 125 136 139 130
244 237 253 262 269 259 16 37 171 153 155 138 148 152 154 150 144 148 147 146 146 147 143 139 136 137 139 136 148 154 139 128 40 196 148 146 179 177 173 89 81 88 100 96 101 112 108 101 89
242 239 264 263 249 319 332 312 224 152 153 149 140 152 156 156 151 147 147 148 150 148 147 145 138 139 139 145 153 160 150 139 102 127 146 141 160 156 121 83 79 88 69 86 82 81 73 76 65
263 252 268 269 296 272 308 310 243 143 159 152 153 155 159 152 150 147 150 141 152 150 149 147 144 146 147 150 160 166 163 161 96 97 112 125 136 123 110 93 91 71 71 69 60 60 59 57 44
249 257 260 307 347 153 228 233 200 174 124 142 146 151 145 151 147 146 150 149 139 153 153 155 153 150 153 155 161 172 173 161 156 99 111 113 109 110 114 97 87 74 74 76 78 75 66 59 51
253 271 269 284 303 257 211 117 154 89 53 105 127 132 134 144 147 147 155 154 148 153 153 158 158 159 159 156 164 170 174 172 146 138 123 99 131 105 115 103 78 89 85 80 70 77 67 65 55
279 263 270 282 288 343 74 51 61 57 56 56 96 92 123 133 148 150 152 155 158 152 159 160 162 162 162 165 160 163 167 172 170 151 141 125 138 137 127 112 95 89 84 79 73 70 62 60 53
300 285 285 286 297 321 350 358 7 52 76 71 86 87 99 135 140 153 150 147 158 159 162 156 163 164 165 166 167 169 168 171 172 164 164 155 146 129 124 114 95 87 83 71 57 50 37 41 30
291 286 283 277 284 290 317 321 307 282 36 82 87 89 96 116 119 141 152 154 154 156 159 161 160 161 164 163 164 167 167 166 171 173 169 165 141 135 138 121 96 74 66 39 40 35 28 19 16
313 296 290 284 275 280 299 308 2 123 59 50 82 80 88 102 117 132 137 148 156 158 152 157 161 162 164 164 167 169 167 169 174 180 180 165 143 150 145 110 62 56 55 42 35 16 13 11 7